Location: Bretagne
(43.8474°N, 0.4650°W)
Time: 10:30:57
(UTC+00:00)

ATLAS 3B R/B - Pass Details

Date: 15 January 2026
Orbit: 936 x 1258 km, 63.8° (Epoch: 10 February)

Event Time Altitude Azimuth Distance (km) Brightness Sun altitude
Rises 17:11:04 0° 267° (W) 4,113 7.3 -4.2°
Reaches altitude 10° 17:14:25 10° 280° (W) 3,187 6.2 -4.8°
Maximum altitude 17:20:37 25° 333° (NNW) 2,282 4.5 -5.8°
Drops below altitude 10° 17:26:56 10° 27° (NNE) 3,246 4.8 -6.8°
Enters shadow 17:29:28 - 37° (NE) 3,935 5.1 -7.2°
